STARLINK-30224, 57416

Orbit data source: Space-Track

STARLINK-30224, 57416 is a payload satellite owned by SpaceX/Seattle (US) in LEO that was launched on Thu, 20 Jul 2023 UTC via an FALCON 9 launch vehicle from the Air Force Western Test Range (AFWTR). Payload-class satellites include a variety of spacecraft equipped with specific instruments for various scientific and technological missions. These include communications satellites like Starlink; space stations such as the ISS; scientific satellites like the Hubble; Earth observation satellites from companies like Planet Labs, Umbra, and HawkEye 360; GPS; miniature CubeSats for education and research; and military/defense satellites.

Loading next visibility...
Identifier
57416, 2023-102N
Orbit
LEO
Country
Flag of USUS
Related business
Manufacturer
SpaceX/Seattle
Mission
Operational Commercial Communications
Bus & Motor
STARLINK V2M, Unknown motor
Mass
730 kg wet, ~700 kg dry
Launch date (UTC)
2023-07-20 (3 years ago)
Launch vehicle
FALCON 9
Launch site
Air Force Western Test Range (AFWTR)
Object type
Payload
Rocket body
Debris
Shape & HBR
Box + 2 Pan, 17.7 m
Radar Cross Section
33.884 m², Large (>1 m²)

Expand to show TLE details & history
Last TLE update: 2 days ago

TLE from 2 days ago
0 STARLINK-30224
1 57416U 23102N   26170.98137284  .00001489  00000-0  63604-4 0  9994
2 57416  43.0024  30.9296 0001170 267.3517  92.7201 15.27581715161884
Epoch: 2026-06-19T23:33Z
TLE epoch observation values (Epoch: 2026-06-19T23:33:10.613Z)
Latitude
Longitude
129.43283°
Altitude
482.858 km
Speed
7.626 km/s
True Right ascension
02h 03m 43s
True Declination
0° 00' 00"
Sunlit
Object was in daylight at epoch
Visualization orbit readout
Latitude
Unknown
Longitude
Unknown
Altitude
Unknown
Speed
Unknown
Apparent Right ascension
Unknown
Apparent Declination
Unknown
Sunlit
N/A
Visualization observer readout
Local Sidereal Time
21:31:18
Azimuth
Unknown
Elevation
Unknown
Doppler factor
Unknown
Orbital elements
Apogee altitude
485.792 km
Perigee altitude
484.186 km
Semi-major axis
6,863.126 km
Eccentricity
0.00012
Inclination
43.0024°
RAAN
30.9296°
Arg. of periapsis
267.3517°
True anomaly
92.73349°
Mean anomaly
92.7201°
Eccentric anomaly
92.7268°
Mean motion
3.81733 °/min
Orbital period
94.31 mins
BSTAR
0.000063604
Loading maneuver chart data...
Computing Atmospheric mass density...
Loading historical data...
Loading historical data...
Loading historical data...
Loading historical data...
Loading historical data...
Loading historical data...
Loading historical data...

Documentation

Showing up to 5 results
|